This is the latest recevied weather packets stored in our database for station/object K6CED. If no packets are shown the sender has not sent any weather packets the latest 10 day(s).
| Time | Temp. | Humidity | Pressure | Rain* | Wind** | Luminosity | Snow |
|---|---|---|---|---|---|---|---|
| 1787382203 | 22.22° C | 75% | 1018.2 hPa | 0 mm | - | 0 W/m² | - |
| 1787381902 | 22.78° C | 74% | 1018.4 hPa | 0 mm | - | 0 W/m² | - |
| 1787381601 | 22.78° C | 74% | 1018.4 hPa | 0 mm | - | 0 W/m² | - |
| 1787381295 | 22.78° C | 73% | 1018.4 hPa | 0 mm | - | 0 W/m² | - |
| 1787380990 | 22.78° C | 73% | 1018.1 hPa | 0 mm | - | 0 W/m² | - |
| 1787380689 | 22.78° C | 72% | 1018.4 hPa | 0 mm | - | 0 W/m² | - |
| 1787380386 | 23.33° C | 72% | 1018.4 hPa | 0 mm | - | 0 W/m² | - |
| 1787380081 | 23.33° C | 72% | 1018.2 hPa | 0 mm | - | 0 W/m² | - |
| 1787379777 | 23.33° C | 72% | 1018.2 hPa | 0 mm | - | 0 W/m² | - |
| 1787379476 | 23.33° C | 71% | 1018.1 hPa | 0 mm | - | 0 W/m² | - |
| 1787379171 | 23.33° C | 71% | 1018.3 hPa | 0 mm | - | 0 W/m² | - |
| 1787378869 | 23.33° C | 71% | 1018.3 hPa | 0 mm | - | 0 W/m² | - |
| 1787378566 | 23.33° C | 71% | 1018.2 hPa | 0 mm | - | 0 W/m² | - |
| 1787378265 | 23.89° C | 70% | 1018.2 hPa | 0 mm | - | 0 W/m² | - |
| 1787377961 | 23.89° C | 70% | 1018.2 hPa | 0 mm | - | 0 W/m² | - |
| 1787377659 | 23.89° C | 70% | 1018.1 hPa | 0 mm | - | 0 W/m² | - |
| 1787377358 | 23.89° C | 69% | 1018.5 hPa | 0 mm | - | 0 W/m² | - |
| 1787377054 | 23.89° C | 69% | 1018.3 hPa | 0 mm | - | 0 W/m² | - |
| 1787376750 | 24.44° C | 69% | 1018.5 hPa | 0 mm | - | 0 W/m² | - |
| 1787376446 | 23.89° C | 69% | 1018.4 hPa | 0 mm | - | 0 W/m² | - |
| 1787376141 | 24.44° C | 68% | 1018.4 hPa | 0 mm | - | 0 W/m² | - |
| 1787375837 | 24.44° C | 67% | 1018.2 hPa | 0 mm | - | 0 W/m² | - |
| 1787375533 | 24.44° C | 66% | 1018.3 hPa | 0 mm | - | 0 W/m² | - |
| 1787375228 | 24.44° C | 66% | 1018.4 hPa | 0 mm | - | 0 W/m² | - |
| 1787374923 | 25° C | 65% | 1018.5 hPa | 0 mm | - | 0 W/m² | - |
* Rain latest hour (hover to see other rain measurements)
** Current wind speed in m/s (hover to see current wind gust speed)